EW3836 Weather Reports


Display with metric or nautical units.
time (UTC)temp
F
wind
direction
speed
MPH
gust
MPH
rain 1hr
in
rain 24hr
in
rain mn
in
humidity
%
barometer
mb
20260509091531 47 234 0.0 0.0 0.00 0.00 0.00 76 1017.6
20260509090029 46 196 0.0 0.0 0.00 0.00 0.00 77 1017.5
20260509084530 46 225 0.0 0.0 0.00 0.00 0.00 77 1017.6
20260509083022 47 255 0.0 0.0 0.00 0.00 0.00 75 1017.5
20260509081523 47 264 0.0 0.0 0.00 0.00 0.00 74 1017.4
20260509080016 47 265 0.0 0.0 0.00 0.00 0.00 73 1017.4
20260509074513 47 242 0.0 0.0 0.00 0.00 0.00 72 1017.2
20260509073010 48 244 0.0 0.0 0.00 0.00 0.00 71 1017.1
20260509071514 48 239 0.0 0.0 0.00 0.00 0.00 70 1017.1
20260509070006 49 257 0.0 0.0 0.00 0.00 0.00 69 1016.9
20260509064503 49 250 0.0 0.0 0.00 0.00 0.00 68 1016.9
20260509063001 49 280 0.0 0.0 0.00 0.00 0.00 66 1016.9
20260509061602 50 271 0.0 0.0 0.00 0.00 0.00 65 1016.9
20260509060107 50 261 0.0 0.0 0.00 0.00 0.00 64 1016.6
20260509054655 51 252 0.0 0.0 0.00 0.00 0.00 62 1016.5
20260509053104 51 267 0.0 0.0 0.00 0.00 0.00 60 1016.6
20260509051557 52 296 0.0 0.0 0.00 0.00 0.00 58 1016.5
20260509050057 52 271 0.0 0.0 0.00 0.00 0.00 57 1016.4
20260509044552 53 289 0.0 0.0 0.00 0.00 0.00 55 1016.1
20260509043049 54 300 0.0 0.0 0.00 0.00 0.00 52 1016.0
20260509041547 54 271 0.0 0.0 0.00 0.00 0.00 51 1015.7
20260509040044 54 267 0.0 0.0 0.00 0.00 0.00 49 1015.5
20260509034548 55 261 0.0 0.0 0.00 0.00 0.00 48 1015.4
20260509033041 55 272 0.0 0.0 0.00 0.00 0.00 47 1015.2
20260509031547 56 292 0.0 0.0 0.00 0.00 0.00 47 1015.0
20260509030038 56 269 0.0 0.0 0.00 0.00 0.00 47 1014.8
20260509024536 57 292 0.0 0.0 0.00 0.00 0.00 45 1014.7
20260509023135 58 293 0.0 0.0 0.00 0.00 0.00 43 1014.6
20260509021535 59 261 0.0 0.0 0.00 0.00 0.00 40 1014.4
20260509020034 60 300 0.0 0.0 0.00 0.00 0.00 38 1014.4
20260509014534 61 331 0.0 0.0 0.00 0.00 0.00 36 1014.4
20260509013051 62 311 0.0 0.0 0.00 0.00 0.00 36 1014.3
20260509011536 62 277 0.0 0.0 0.00 0.00 0.00 35 1014.3
20260509010031 63 294 0.0 0.0 0.00 0.00 0.00 33 1014.2
20260509004533 62 237 0.0 0.0 0.00 0.00 0.00 34 1014.1
20260509003032 63 292 0.0 0.0 0.00 0.00 0.00 32 1014.1
20260509001523 62 301 0.0 0.0 0.00 0.00 0.00 30 1014.2
20260509000018 63 234 0.0 0.0 0.00 0.00 0.00 27 1014.2
20260508234516 64 316 0.0 0.0 0.00 0.00 0.00 24 1014.2
20260508233012 63 230 0.0 0.0 0.00 0.00 0.00 28 1014.1
20260508231509 63 284 0.0 0.0 0.00 0.00 0.00 24 1014.0
20260508230017 64 254 0.0 0.0 0.00 0.00 0.00 27 1014.0
20260508224515 64 271 0.0 0.0 0.00 0.00 0.00 27 1014.1
20260508223010 64 281 0.0 0.0 0.00 0.00 0.00 33 1014.1
20260508221502 63 308 0.0 0.0 0.00 0.00 0.00 34 1014.2
20260508220003 62 320 0.0 0.0 0.00 0.00 0.00 38 1014.2
20260508214602 63 306 0.0 0.0 0.00 0.00 0.00 38 1014.3
20260508213116 61 294 0.0 0.0 0.00 0.00 0.00 44 1014.3
20260508211558 62 298 0.0 0.0 0.00 0.00 0.00 43 1014.4
20260508210055 61 290 0.0 0.0 0.00 0.00 0.00 48 1014.1
20260508204554 61 278 0.0 0.0 0.00 0.00 0.00 47 1014.0
20260508203108 61 272 0.0 0.0 0.00 0.00 0.00 45 1013.9
20260508201550 61 282 0.0 0.0 0.00 0.00 0.00 47 1013.9
20260508200053 60 271 0.0 0.0 0.00 0.00 0.00 46 1013.8
20260508194546 60 239 0.0 0.0 0.00 0.00 0.00 41 1013.9
20260508193116 61 320 0.0 0.0 0.00 0.00 0.00 44 1013.9
20260508191541 60 242 0.0 0.0 0.00 0.00 0.00 43 1014.0
20260508190039 59 275 0.0 0.0 0.00 0.00 0.00 46 1014.0
20260508184534 58 284 0.0 0.0 0.00 0.00 0.00 51 1014.1
20260508183033 57 240 0.0 0.0 0.00 0.00 0.00 46 1014.3
20260508181531 56 246 0.0 0.0 0.00 0.00 0.00 48 1014.3
20260508180030 56 221 0.0 0.0 0.00 0.00 0.00 47 1014.5
20260508174535 56 202 0.0 0.0 0.00 0.00 0.00 50 1014.5
20260508173022 56 211 0.0 0.0 0.00 0.00 0.00 50 1014.5
20260508171519 55 261 0.0 0.0 0.00 0.00 0.00 50 1014.4
20260508170017 55 215 0.0 0.0 0.00 0.00 0.00 47 1014.2
20260508164515 55 241 0.0 0.0 0.00 0.00 0.00 48 1014.0
20260508163011 55 252 0.0 0.0 0.00 0.00 0.00 46 1013.9
20260508161516 55 259 0.0 0.0 0.00 0.00 0.00 47 1013.7
20260508160009 54 178 0.0 0.0 0.00 0.00 0.00 48 1013.6
20260508154506 54 234 0.0 0.0 0.00 0.00 0.00 51 1013.6
20260508153003 53 217 0.0 0.0 0.00 0.00 0.00 49 1013.5
20260508151506 53 208 0.0 0.0 0.00 0.00 0.00 42 1013.6
20260508150008 53 236 0.0 0.0 0.00 0.00 0.00 41 1013.5
20260508144501 53 227 0.0 0.0 0.00 0.00 0.00 41 1013.5
20260508143105 52 170 0.0 0.0 0.00 0.00 0.00 47 1013.5
20260508141559 52 201 0.0 0.0 0.00 0.00 0.00 53 1013.5
20260508140110 51 170 0.0 0.0 0.00 0.00 0.00 52 1013.2
20260508134616 51 183 0.0 0.0 0.00 0.00 0.00 54 1013.2
20260508133110 50 192 0.0 0.0 0.00 0.00 0.00 53 1013.1
20260508131553 50 220 0.0 0.0 0.00 0.00 0.00 50 1013.3
20260508130050 50 239 0.0 0.0 0.00 0.00 0.00 46 1013.3
20260508124547 51 245 0.0 0.0 0.00 0.00 0.00 41 1013.2
20260508123047 51 227 0.0 0.0 0.00 0.00 0.00 38 1013.1
20260508121543 51 228 0.0 0.0 0.00 0.00 0.00 35 1013.1
20260508120048 51 239 0.0 0.0 0.00 0.00 0.00 33 1013.1
20260508114539 50 171 0.0 0.0 0.00 0.00 0.00 32 1013.0
20260508113044 52 205 0.0 0.0 0.00 0.00 0.00 31 1013.0
20260508111535 52 199 0.0 0.0 0.00 0.00 0.00 29 1012.8
20260508110033 51 146 0.0 0.0 0.00 0.00 0.00 28 1012.6
20260508104530 52 156 0.0 0.0 0.00 0.00 0.00 26 1012.4
20260508103029 52 159 0.0 0.0 0.00 0.00 0.00 28 1012.4
20260508101527 52 194 0.0 0.0 0.00 0.00 0.00 28 1012.5
20260508100026 52 205 0.0 0.0 0.00 0.00 0.00 27 1012.5
20260508094525 51 188 0.0 0.0 0.00 0.00 0.00 27 1012.7
20260508093023 52 171 0.0 0.0 0.00 0.00 0.00 27 1012.5